Simultaneous Nadir Overpasses (SNOs) Predictions

Prediction of SNOs between AQUA and GOES-15 Satellite Orbit:

Table of predicted SNOs for the next 14.0 days since TLE Epoch: 7/3/2020
Index Date Time (AQUA) AQUA Lat,Lon GOES-15 Lat,Lon Distance(km) Time Diff (sec)
1 07/05/2020 10:07:11 -0.03,-127.88 0.02,-128.25 41.56 80
2 07/07/2020 09:55:00 -0.69,-124.93 0.02,-128.28 381.67 80
3 07/07/2020 22:16:24 -0.40,-130.12 -0.02,-128.23 213.75 80
4 07/09/2020 22:04:12 0.20,-127.15 -0.02,-128.27 126.60 80
5 07/10/2020 10:25:28 0.90,-132.31 0.03,-128.34 452.01 80
6 07/11/2020 21:52:01 0.86,-124.20 -0.02,-128.31 466.71 80
7 07/12/2020 10:13:17 0.24,-129.36 0.03,-128.38 112.07 80
8 07/14/2020 10:01:06 -0.42,-126.41 0.02,-128.41 227.34 80
9 07/14/2020 22:22:29 -0.72,-131.59 -0.02,-128.35 368.91 80
10 07/16/2020 22:10:18 -0.06,-128.64 -0.01,-128.37 30.41 80
